User: anonymous   Login
Location: Caltech
(34.1382°N, 118.1253°W)
Time: 19:22:15
(UTC-08:00)
Language:

Cosmos 44 Rocket - Orbit

View from above orbital plane
View from above orbital plane
View from above satellite
View from above satellite

Ground track
Ground track

The orbit data is extracted from the following two-line orbital elements,

1 00877U 64053B   15025.90411279  .00000061  00000-0  37569-4 0  8514
2 00877 065.0804 323.5923 0049802 094.1998 266.4794 14.59016229674090
Epoch (UTC): 25 January 2015 21:41:55
Eccentricity: 0.0049802
inclination: 65.0804°
perigee height: 661 km
apogee height: 731 km
right ascension of ascending node: 323.5923°
argument of perigee: 94.1998°
revolutions per day: 14.59016229
mean anomaly at epoch: 266.4794°
orbit number at epoch: 67409

The dashed part of the orbit path shows where the satellite is in the earth's shadow,  

DLR